{"data":{"norad_id":48998,"intl_designator":"2021-060AH","name":"ONEWEB-0280","alt_names":[],"object_type":"PAYLOAD","status":"ACTIVE","operator":null,"country":"UK","launch_date":"2021-07-01","launch_site_code":"VOSTO","launch_vehicle":null,"mission":null,"orbit_class":"UNKNOWN","rcs_meters":null,"size_class":null,"mass_kg":null,"dimensions":null,"purposes":["comms"],"wikipedia_slug":null,"has_3d_model":false,"image_url":null,"decayed_at":null,"tle_current":{"epoch":"2026-05-24T22:59:06.813600Z","epoch_age_seconds":78707,"freshness":"FRESH","line1":"1 48998U 21060AH  26144.95771775  .00000051  00000+0  10003-3 0  9994","line2":"2 48998  87.9105 233.3882 0001705 107.7093 252.4224 13.16597019236508","mean_motion":13.16597019,"eccentricity":0.0001705,"inclination_deg":87.9105,"raan_deg":233.3882,"arg_perigee_deg":107.7093,"mean_anomaly_deg":252.4224,"bstar":0.00010003,"rev_number":23650,"period_min":109.37287410036,"perigee_km":1196.4543837225,"apogee_km":1199.03775985,"semimajor_km":7575.8830717863,"source":"CELESTRAK","updated_at":"2026-05-25T13:38:22.479180Z"}}}